Location: Lussas
(44.6119°N, 4.4726°E)
Time: 15:34:22
(UTC+00:00)

COSMO-SKYMED 1 - Pass Details

Date: 26 November 2020
Orbit: 621 x 623 km, 97.9° (Epoch: 28 January)

Event Time Altitude Azimuth Distance (km) Brightness Sun altitude
Rises 05:39:46 0° 194° (SSW) 2,888 6.0 -12.8°
Reaches altitude 10° 05:42:13 10° 206° (SSW) 1,988 5.1 -12.4°
Maximum altitude 05:45:55 27° 265° (W) 1,194 3.5 -11.8°
Drops below altitude 10° 05:49:39 10° 324° (NW) 2,003 4.7 -11.2°
Enters shadow 05:49:40 10° 324° (NW) 2,009 4.7 -11.2°
